Wind_Speed
10 9 5 0 2 2 1 2 2 1 6 12 22 5 9 10 2 3 23 22 23 21 19 16 16 14 13 12 11 12 13 10 12 13 13 12 13 14 15 16 17 16 16 19 19 21 22 22 22
12 8 1 2 2 3 3 1 4 5 10 29 8 16 6 4 7 23 25 24 22 20 17 16 15 13 12 11 12 12 13 13 11 13 13 13 14 15 15 17 16 16 17 20 20 20 19 19 18
12 4 2 2 1 2 2 1 4 9 23 21 7 11 5 3 16 32 26 26 22 20 18 17 16 14 14 14 13 13 12 13 13 13 14 14 14 15 16 17 16 16 17 18 18 17 17 17 16
6 1 1 2 5 4 3 5 11 15 15 7 15 10 9 6 23 24 27 24 22 20 17 16 16 14 13 13 14 13 14 14 14 14 15 15 14 15 16 17 15 14 17 17 17 16 16 17 15
4 2 1 3 5 2 3 8 7 10 5 17 12 7 14 14 20 29 27 24 21 19 18 16 13 13 13 13 13 14 15 13 14 14 15 15 15 16 16 16 15 15 17 18 16 14 14 15 15
3 2 1 3 4 3 2 7 3 11 15 18 18 18 8 19 28 26 24 22 19 18 17 16 14 12 12 13 13 14 14 14 12 13 15 15 16 17 16 16 14 16 17 18 15 14 15 15 14
2 0 2 5 7 4 6 11 6 16 16 9 24 6 17 28 26 26 24 21 19 17 15 14 13 12 12 12 13 12 11 13 14 13 15 15 16 16 15 13 13 17 18 18 16 15 16 12 11
3 2 2 3 7 4 3 7 17 27 9 22 24 6 16 31 29 26 24 21 19 16 13 11 12 12 12 12 12 12 11 12 12 14 15 17 18 17 17 17 17 17 18 17 17 15 14 11 11
1 2 0 4 5 6 4 12 14 11 27 15 3 26 35 33 30 26 23 21 18 15 13 12 11 11 11 12 13 13 11 12 14 16 15 17 17 19 19 21 20 19 18 18 16 14 12 9 8
4 1 1 5 10 5 8 17 18 13 16 22 29 26 32 32 29 25 25 22 18 16 15 13 13 11 12 15 16 15 15 13 17 17 18 18 19 19 21 20 21 19 17 14 12 10 9 6 5
4 2 2 3 19 16 13 11 19 26 10 31 37 35 34 31 29 26 25 21 18 18 16 14 15 14 15 18 18 13 14 17 18 18 19 19 19 19 16 15 17 16 14 11 11 8 6 5 5
2 6 6 5 15 19 16 13 17 16 14 38 39 38 36 34 32 29 26 23 21 18 19 18 18 19 22 19 16 15 15 16 16 16 16 17 17 16 15 15 13 12 12 11 8 7 4 5 6
4 5 9 8 14 20 16 13 15 10 31 38 38 39 39 36 32 27 24 23 21 22 23 22 19 20 17 18 15 15 15 15 15 15 15 15 14 12 9 7 12 11 9 10 10 11 9 6 9
10 4 12 9 15 14 15 10 12 17 35 37 40 40 39 35 31 28 25 25 23 23 24 23 20 16 17 16 18 15 13 13 14 14 14 9 10 5 7 7 9 9 10 9 8 8 7 6 7
9 7 6 10 7 7 27 7 11 15 35 36 37 37 35 34 32 32 27 27 25 24 26 24 22 18 16 15 15 13 11 9 8 8 8 9 7 5 4 5 7 9 8 9 8 6 4 2 5
8 4 7 9 10 10 3 3 10 23 31 30 33 30 31 32 37 32 26 25 25 25 22 23 20 19 17 14 13 13 9 7 5 6 7 6 5 5 6 5 6 5 7 7 6 3 3 4 2
1 3 4 7 6 7 3 4 12 18 22 28 29 30 29 32 29 32 27 26 26 24 22 23 18 16 15 17 15 13 10 6 5 5 6 6 5 4 5 6 5 5 8 7 5 3 5 3 0
3 4 2 4 10 6 2 2 13 18 19 20 24 26 29 30 33 34 31 29 25 25 23 23 19 17 16 17 15 14 13 8 7 7 6 6 4 6 8 6 3 3 6 5 3 4 1 3 3
3 2 4 6 7 7 5 6 15 19 11 18 23 21 30 35 35 35 33 30 27 26 25 25 22 19 18 16 14 13 14 11 9 9 6 6 8 7 6 8 4 4 4 4 2 2 3 1 1
3 1 5 11 8 9 10 7 4 10 19 22 33 18 31 30 35 39 37 31 31 27 26 27 25 20 18 13 12 11 12 11 10 9 7 6 7 7 7 7 6 4 3 4 4 1 1 2 3
1 3 7 5 8 8 9 6 11 4 19 24 34 14 30 36 39 39 41 36 33 30 26 26 26 21 22 16 13 13 13 11 12 10 8 6 6 4 7 7 7 6 6 5 6 1 2 3 4
2 5 5 16 8 4 2 3 10 10 13 20 32 18 28 37 43 42 43 38 38 33 26 25 22 18 22 19 18 14 12 11 10 9 7 8 7 5 7 7 9 6 6 6 7 4 1 3 4
7 3 5 9 4 6 4 1 5 6 12 14 28 23 22 36 46 47 45 40 39 34 28 25 23 20 18 19 17 15 13 14 14 7 9 11 8 8 5 6 10 8 8 9 8 6 3 1 4
3 1 6 6 4 1 8 6 4 7 14 17 31 29 28 35 36 42 44 40 39 34 28 27 25 23 18 21 23 18 15 10 14 14 9 9 9 11 11 9 7 11 9 10 11 8 7 4 1
4 5 1 2 1 5 9 7 6 5 11 19 31 31 35 36 40 37 36 37 40 36 29 28 24 25 22 21 24 22 19 12 13 10 12 13 10 8 10 8 7 9 9 9 14 13 10 9 7
6 10 5 6 5 3 5 5 4 5 14 16 16 21 23 32 35 35 31 33 36 37 32 28 25 21 24 24 24 25 21 17 14 10 9 13 12 9 9 9 6 8 10 13 13 14 11 12 11
4 4 9 5 2 4 2 4 1 5 8 15 20 24 26 24 31 32 32 33 33 36 35 31 27 23 22 25 25 27 23 20 16 14 11 10 13 11 11 12 10 9 9 13 12 12 12 12 13
8 6 4 3 5 4 1 2 3 2 4 8 12 19 18 21 21 28 25 30 30 33 36 33 30 27 23 24 25 29 26 22 18 16 14 13 12 11 8 8 10 11 11 11 14 12 11 11 11
1 2 5 5 5 5 3 5 1 6 7 9 13 14 14 16 17 16 25 24 28 18 28 31 29 27 23 21 24 28 28 24 20 19 16 16 16 14 12 11 12 9 10 11 12 10 11 11 11
5 9 7 5 3 1 3 5 2 8 9 14 13 11 9 8 13 19 21 24 28 31 16 22 25 25 22 20 22 24 28 27 25 21 20 21 21 17 15 13 12 10 12 9 10 10 9 10 12
Wind_Direction
143 143 148 164 76 63 347 295 292 106 143 147 154 161 153 115 160 164 142 154 156 151 148 142 146 142 140 140 138 137 133 128 133 133 128 123 125 120 111 113 112 110 111 112 108 112 111 110 104
142 147 126 317 69 77 288 32 263 242 154 148 130 134 44 80 119 137 146 153 160 152 149 147 142 140 138 133 132 134 135 129 125 125 115 116 121 120 117 115 111 111 116 118 115 116 113 109 108
138 137 4 57 40 174 145 272 106 127 135 151 105 97 57 79 142 139 148 153 160 156 151 145 142 136 132 132 131 131 127 133 132 128 130 124 121 119 119 114 112 113 121 125 121 116 111 109 106
154 223 297 104 213 227 139 217 127 119 112 127 108 83 77 142 134 147 147 154 158 155 149 146 147 134 135 132 127 129 127 133 133 130 128 125 123 121 121 115 108 113 123 130 126 116 105 107 105
131 71 255 169 219 280 197 180 163 134 109 146 136 100 111 142 140 144 146 153 156 150 147 143 144 144 139 134 132 131 124 122 129 128 127 131 128 124 120 116 108 119 125 135 127 118 112 111 100
130 149 197 188 178 136 45 225 19 111 119 122 113 112 102 145 143 144 148 153 156 150 148 150 149 145 140 139 136 134 134 133 133 134 133 129 126 126 120 125 108 120 128 134 135 120 105 111 95
195 231 317 123 131 97 190 232 190 127 126 111 131 94 132 150 150 148 153 154 153 152 152 148 148 145 142 139 137 137 138 140 136 132 127 129 124 127 128 130 122 125 132 137 131 120 110 107 99
230 230 94 149 155 153 194 119 152 135 94 123 115 148 149 156 154 154 154 154 156 154 152 151 146 145 142 141 139 140 142 140 135 134 131 129 127 124 121 121 122 126 130 128 129 122 114 115 101
197 312 116 123 149 162 178 130 149 125 134 131 119 147 149 157 154 152 155 159 159 158 154 151 142 145 148 143 139 136 135 139 139 131 129 129 132 121 116 112 115 118 123 129 132 132 122 102 95
196 255 279 95 156 197 145 137 129 125 137 111 122 143 157 159 157 158 160 159 164 157 152 153 143 149 147 139 131 127 118 128 139 135 131 131 133 128 120 116 116 120 120 121 129 131 120 109 66
152 237 107 235 176 189 151 129 146 146 140 143 144 149 164 165 165 156 157 154 149 151 152 148 144 147 140 133 131 134 128 124 127 130 132 136 140 132 120 119 122 123 122 121 126 126 108 119 130
150 215 226 221 197 175 167 145 153 168 165 157 156 164 164 171 171 162 155 153 149 144 139 140 144 146 136 130 130 126 126 124 125 131 134 140 141 134 130 120 123 133 134 132 127 124 121 118 80
234 201 198 197 189 154 144 154 154 161 157 160 161 166 171 178 176 171 162 154 148 144 137 134 139 146 140 132 138 134 124 123 122 128 133 137 142 139 142 132 114 125 141 128 119 118 114 96 66
193 112 115 127 166 144 131 122 149 159 160 161 164 171 176 179 181 177 172 167 159 154 146 139 137 140 141 140 138 135 134 131 128 129 132 133 149 162 136 121 124 113 129 136 124 122 105 80 72
155 125 71 131 133 137 124 132 142 155 158 163 172 175 182 185 186 185 177 168 163 158 151 144 142 143 149 145 146 152 143 140 150 152 125 136 135 154 96 131 134 116 130 144 140 131 109 59 51
160 140 149 187 147 150 134 143 122 148 162 171 176 176 181 190 192 192 182 175 170 169 165 156 152 160 157 159 150 155 150 148 145 148 150 135 169 184 159 140 116 114 149 153 146 136 149 126 110
306 191 188 176 198 153 65 166 168 180 160 186 187 179 183 186 191 196 190 184 176 178 176 172 167 165 171 172 161 170 170 166 167 177 153 156 154 147 157 145 114 118 139 139 120 129 118 86 97
76 92 234 162 186 165 41 219 174 181 197 192 194 188 181 185 196 194 190 188 181 180 174 174 172 175 179 180 179 182 189 192 205 177 181 177 164 175 179 168 135 138 145 145 158 135 106 52 22
98 20 356 58 59 79 43 4 176 195 203 216 207 184 187 190 196 193 189 188 182 179 178 180 180 182 182 185 186 182 192 184 177 187 176 205 202 200 196 189 171 165 144 206 177 137 8 19 297
121 14 86 93 103 92 28 354 345 219 207 212 208 192 178 181 180 189 189 189 187 179 185 185 186 186 185 190 190 192 187 205 202 195 196 222 223 218 210 200 201 180 194 185 175 193 57 44 23
153 178 175 136 101 90 124 333 285 203 222 203 221 234 178 181 183 189 191 189 186 186 181 179 185 201 192 189 193 190 203 215 205 198 206 196 204 221 243 233 196 203 225 199 190 186 208 25 24
207 225 191 142 154 159 216 246 230 198 202 198 215 220 183 184 189 191 191 189 190 188 184 184 190 185 189 199 195 200 197 202 208 210 208 213 211 244 209 227 220 226 217 222 213 221 205 39 44
231 216 250 156 112 106 218 111 282 142 192 189 205 227 191 189 189 190 192 192 191 191 189 192 193 194 204 201 190 200 224 224 239 217 208 214 213 216 231 241 229 241 228 210 208 217 226 82 57
185 244 53 52 112 147 186 175 242 193 193 173 192 208 194 175 190 189 193 194 193 194 197 197 200 201 201 202 204 209 225 223 221 227 228 227 223 219 225 242 247 222 224 226 219 223 224 236 244
127 85 97 359 334 220 170 170 260 238 184 187 193 180 175 175 177 181 191 194 197 196 203 204 206 208 207 207 211 214 219 218 222 226 247 243 238 251 238 247 228 225 222 233 223 226 233 242 243
179 156 164 193 182 208 110 222 242 309 237 201 188 185 172 168 170 169 197 205 205 202 207 210 210 213 214 214 217 216 222 220 231 238 255 232 246 261 251 245 213 221 227 221 233 233 241 248 246
192 144 200 132 28 97 205 297 300 41 57 110 140 167 185 184 180 187 196 211 216 212 213 213 217 217 218 218 219 220 224 227 234 245 254 239 248 236 245 246 257 250 250 234 227 234 248 249 243
163 172 87 5 136 175 280 304 253 83 113 102 94 117 150 170 177 186 189 185 198 211 216 218 220 225 224 224 226 225 231 235 238 241 243 228 236 226 253 240 264 265 269 241 233 240 246 246 245
39 174 47 118 127 150 160 250 164 179 155 120 118 129 147 168 178 192 195 187 191 200 214 222 222 228 230 236 231 229 233 235 238 230 232 238 236 238 248 254 262 257 259 238 239 233 236 251 251
213 201 158 130 206 46 118 259 98 126 132 128 128 138 142 157 183 203 211 210 213 224 217 224 225 219 227 234 241 236 234 237 244 243 242 244 244 248 257 258 265 258 240 237 245 233 235 247 255
Height
1514 1516 1516 1517 1523 1519 1524 1521 1515 1512 1515 1517 1523 1524 1524 1526 1531 1543 1539 1544 1547 1550 1553 1555 1557 1558 1559 1560 1560 1561 1562 1563 1562 1563 1563 1564 1564 1565 1566 1565 1565 1565 1565 1566 1567 1567 1568 1569 1570
1515 1516 1518 1517 1524 1529 1526 1514 1513 1511 1511 1516 1521 1524 1526 1531 1530 1534 1539 1545 1550 1552 1554 1557 1559 1560 1561 1561 1562 1562 1563 1564 1565 1565 1566 1566 1566 1567 1567 1567 1567 1568 1568 1569 1570 1571 1571 1573 1574
1516 1517 1519 1518 1522 1528 1525 1516 1512 1510 1512 1517 1521 1523 1529 1533 1533 1536 1541 1546 1551 1554 1556 1558 1559 1561 1562 1563 1564 1564 1564 1565 1567 1567 1568 1568 1569 1569 1570 1571 1571 1571 1572 1573 1574 1575 1575 1576 1577
1517 1519 1520 1521 1524 1518 1516 1513 1513 1512 1517 1520 1522 1528 1533 1534 1537 1540 1544 1549 1552 1555 1558 1560 1561 1562 1563 1565 1565 1566 1567 1567 1568 1569 1570 1571 1572 1572 1573 1574 1575 1574 1575 1576 1578 1579 1579 1579 1580
1518 1518 1519 1518 1521 1518 1513 1513 1515 1517 1518 1521 1525 1532 1535 1540 1541 1544 1547 1552 1555 1557 1559 1562 1564 1564 1565 1565 1567 1568 1569 1569 1570 1572 1572 1573 1574 1575 1576 1577 1577 1577 1578 1580 1581 1582 1583 1583 1582
1517 1517 1523 1521 1521 1515 1513 1514 1517 1518 1521 1525 1529 1531 1539 1543 1544 1548 1552 1555 1558 1560 1562 1563 1565 1567 1567 1568 1569 1570 1570 1571 1573 1574 1575 1576 1577 1577 1579 1580 1580 1581 1582 1583 1584 1585 1585 1586 1586
1515 1516 1514 1516 1519 1518 1518 1515 1519 1520 1523 1527 1526 1532 1541 1545 1548 1551 1554 1557 1560 1563 1565 1566 1567 1569 1570 1571 1572 1572 1572 1573 1575 1576 1576 1578 1579 1579 1581 1582 1583 1583 1584 1586 1587 1588 1588 1589 1588
1513 1515 1514 1514 1521 1524 1517 1516 1519 1517 1525 1528 1532 1535 1540 1545 1550 1553 1557 1560 1562 1565 1567 1568 1569 1570 1572 1573 1574 1574 1575 1576 1577 1578 1579 1581 1582 1583 1583 1584 1585 1586 1587 1589 1589 1591 1591 1592 1592
1512 1515 1518 1516 1515 1520 1518 1517 1523 1524 1524 1530 1532 1536 1542 1546 1551 1555 1559 1562 1565 1567 1570 1570 1571 1572 1574 1575 1576 1577 1577 1578 1579 1581 1583 1584 1585 1586 1587 1587 1588 1589 1591 1592 1593 1594 1594 1595 1594
1513 1515 1515 1512 1516 1515 1517 1519 1520 1527 1531 1533 1536 1544 1546 1550 1553 1556 1559 1563 1566 1568 1570 1571 1573 1575 1576 1577 1578 1579 1579 1580 1581 1583 1585 1586 1588 1589 1589 1591 1592 1593 1595 1596 1597 1597 1597 1597 1597
1511 1511 1510 1512 1513 1515 1517 1521 1522 1526 1533 1531 1535 1542 1548 1553 1556 1558 1562 1565 1566 1568 1570 1572 1574 1576 1578 1580 1581 1582 1583 1583 1584 1586 1588 1589 1590 1592 1593 1596 1596 1597 1597 1598 1599 1599 1599 1599 1599
1510 1507 1505 1511 1512 1517 1519 1522 1524 1527 1530 1532 1536 1543 1548 1554 1556 1559 1562 1565 1567 1570 1572 1574 1576 1578 1581 1582 1584 1585 1586 1586 1588 1590 1591 1593 1594 1595 1597 1598 1598 1599 1599 1600 1601 1601 1601 1601 1600
1507 1505 1506 1507 1512 1516 1518 1522 1524 1528 1532 1536 1541 1545 1548 1553 1558 1562 1565 1567 1569 1571 1573 1575 1578 1581 1583 1584 1586 1587 1588 1589 1591 1593 1595 1596 1597 1598 1599 1600 1600 1600 1601 1601 1602 1602 1602 1602 1602
1500 1506 1508 1511 1512 1517 1519 1526 1528 1532 1533 1538 1542 1546 1551 1553 1557 1561 1565 1568 1570 1572 1574 1577 1579 1582 1584 1586 1588 1590 1591 1592 1593 1595 1598 1599 1600 1601 1601 1601 1602 1602 1603 1603 1604 1604 1604 1604 1604
1501 1506 1511 1513 1515 1517 1521 1530 1529 1531 1533 1538 1542 1547 1551 1555 1558 1559 1563 1567 1570 1573 1575 1578 1581 1584 1586 1588 1590 1592 1593 1595 1596 1597 1598 1599 1601 1602 1603 1602 1603 1604 1605 1605 1605 1606 1606 1605 1605
1503 1506 1519 1514 1515 1519 1521 1538 1532 1533 1535 1539 1542 1547 1551 1554 1557 1561 1565 1568 1571 1574 1575 1579 1582 1584 1587 1589 1591 1593 1594 1596 1597 1598 1600 1601 1602 1603 1604 1605 1605 1606 1606 1607 1607 1607 1607 1607 1607
1506 1517 1517 1518 1515 1517 1522 1534 1531 1533 1535 1540 1542 1546 1550 1554 1558 1562 1565 1568 1571 1574 1576 1579 1582 1584 1587 1590 1592 1594 1596 1597 1599 1600 1602 1603 1603 1604 1605 1606 1607 1607 1608 1608 1609 1609 1609 1609 1609
1518 1516 1515 1514 1515 1519 1527 1530 1531 1535 1537 1537 1541 1545 1549 1552 1555 1560 1564 1568 1572 1575 1577 1579 1582 1585 1587 1590 1592 1594 1596 1598 1600 1601 1602 1604 1605 1606 1607 1608 1608 1608 1609 1610 1611 1611 1611 1610 1610
1508 1510 1511 1514 1520 1526 1532 1532 1527 1534 1537 1539 1540 1542 1546 1550 1554 1560 1564 1568 1572 1576 1578 1579 1582 1585 1587 1590 1592 1594 1596 1598 1600 1602 1603 1604 1606 1607 1608 1609 1610 1610 1610 1611 1612 1612 1612 1611 1611
1509 1512 1522 1526 1524 1525 1533 1533 1536 1535 1535 1535 1536 1541 1542 1548 1552 1557 1562 1567 1570 1572 1576 1579 1582 1585 1588 1590 1593 1595 1596 1598 1601 1602 1603 1604 1605 1607 1609 1610 1610 1611 1612 1613 1613 1614 1614 1613 1612
1510 1511 1514 1524 1529 1529 1534 1542 1536 1532 1533 1535 1538 1541 1541 1543 1549 1555 1559 1562 1568 1571 1574 1577 1581 1584 1587 1591 1593 1595 1597 1599 1601 1602 1603 1604 1605 1607 1608 1609 1610 1611 1612 1613 1615 1615 1615 1615 1614
1516 1502 1504 1517 1528 1539 1527 1549 1530 1526 1528 1531 1535 1538 1539 1540 1544 1550 1556 1561 1563 1567 1572 1576 1580 1583 1587 1590 1593 1596 1597 1599 1601 1602 1604 1605 1606 1607 1608 1610 1611 1612 1613 1614 1616 1616 1616 1616 1615
1508 1502 1502 1512 1526 1535 1539 1544 1522 1520 1524 1528 1523 1533 1534 1537 1540 1546 1551 1554 1561 1567 1570 1575 1579 1583 1587 1589 1592 1595 1597 1599 1600 1603 1604 1605 1606 1607 1608 1609 1611 1611 1612 1614 1616 1616 1617 1617 1617
1497 1499 1509 1518 1526 1543 1532 1538 1524 1523 1511 1515 1521 1526 1529 1534 1540 1545 1551 1557 1561 1567 1571 1574 1578 1582 1585 1588 1591 1593 1596 1597 1599 1601 1603 1604 1605 1606 1607 1608 1608 1610 1611 1613 1614 1616 1617 1618 1618
1497 1511 1534 1548 1547 1543 1518 1537 1514 1507 1503 1505 1504 1515 1524 1531 1537 1543 1552 1555 1559 1564 1568 1573 1576 1580 1583 1586 1589 1592 1595 1597 1598 1601 1602 1603 1604 1605 1606 1607 1607 1609 1610 1611 1613 1615 1617 1617 1617
1500 1509 1533 1543 1552 1534 1522 1531 1510 1504 1503 1508 1514 1522 1528 1532 1536 1541 1549 1554 1559 1563 1566 1571 1574 1577 1580 1583 1586 1590 1593 1595 1597 1599 1601 1602 1603 1605 1606 1607 1608 1609 1609 1611 1612 1613 1615 1616 1617
1493 1508 1495 1512 1517 1530 1527 1519 1506 1503 1506 1508 1512 1518 1526 1533 1535 1537 1549 1553 1557 1561 1565 1568 1571 1574 1577 1581 1584 1587 1591 1593 1596 1599 1600 1601 1602 1604 1605 1607 1608 1609 1609 1610 1611 1612 1613 1614 1615
1483 1484 1508 1517 1536 1532 1529 1526 1520 1512 1511 1512 1515 1518 1525 1531 1535 1540 1545 1548 1553 1557 1561 1565 1569 1573 1577 1581 1583 1586 1589 1592 1595 1596 1598 1600 1601 1602 1604 1605 1606 1606 1607 1608 1610 1610 1611 1612 1613
1487 1490 1498 1502 1514 1530 1534 1528 1510 1510 1512 1513 1516 1520 1524 1529 1534 1539 1543 1546 1548 1555 1558 1562 1566 1570 1575 1578 1581 1584 1587 1590 1592 1594 1596 1598 1600 1601 1602 1603 1604 1604 1605 1606 1607 1608 1609 1610 1611
1478 1483 1487 1510 1510 1517 1510 1522 1509 1509 1512 1513 1517 1520 1522 1526 1531 1536 1539 1541 1546 1552 1554 1559 1562 1567 1571 1574 1578 1580 1584 1587 1590 1592 1594 1596 1597 1599 1600 1601 1602 1602 1603 1604 1605 1606 1606 1607 1609